[[{"header":{"parameterUnit":"m.s-1","parameterCategory":2,"la1":30.2992,"la2":30.254,"lo1":-89.0895,"lo2":-89.0443,"dy":0.0025,"dx":0.0025,"nx":19,"ny":19,"refTime":"2026-03-21T03:00:00:Z","depth":"0","parameterNumber":2,"parameterNumberName":"U-component_of_CURRENTS"},"data":[0,0,0,0.4457,0.4462,0.4723,0.4724,0.4893,0.4894,0,0,0,0,0,0,0,0,0,0,0,0.4322,0.4322,0.4457,0.4463,0.4722,0.4724,0.4893,0.4894,0,0,0,0,0,0,0,0,0,0,0,0.4321,0.4322,0.4322,0.4464,0.4722,0.4724,0.4893,0.4742,0,0,0,0,0,0,0,0,0,0,0.4512,0.4492,0.4322,0.4322,0.4465,0.4722,0.4724,0.4737,0.4751,0.4722,0,0.472,0,0.4818,0.4899,0.49,0,0,0,0.4483,0.448,0.4463,0.4322,0.4467,0.4721,0.4611,0.4746,0.4762,0.474,0.4723,0.4733,0.482,0.49,0.49,0.4901,0.49,0,0,0.4469,0.4464,0.4452,0.4471,0.4476,0.4603,0.4619,0.4758,0.4797,0.4724,0.4739,0.4823,0.49,0.4901,0.4901,0.49,0,0,0,0.4414,0.4455,0.4441,0.4461,0.4526,0.461,0.4628,0.4793,0.4761,0.4741,0.4825,0.4901,0.4902,0.4902,0.4901,0.4946,0,0,0,0.4406,0.442,0.4432,0.4447,0.4523,0.4711,0.466,0.475,0.4772,0.4824,0.4901,0.4903,0.4903,0.4901,0.4946,0.4905,0,0,0,0.432,0.4417,0.4406,0.4443,0.4543,0.471,0.4695,0.4759,0.4821,0.49,0.4903,0.4903,0.4902,0.4946,0.4906,0.4933,0,0,0,0.4362,0.4337,0.4407,0.4421,0.454,0.4627,0.4696,0.4816,0.4881,0.4901,0.4902,0.4901,0.4947,0.4908,0.4933,0.481,0.4799,0,0,0.4336,0.4337,0.4334,0.44,0.4449,0.4596,0.4703,0.482,0.4839,0.485,0.4853,0.4946,0.4907,0.4933,0.4723,0.4714,0,0,0,0.4329,0.4319,0.4348,0.4406,0.4485,0.4612,0.4761,0.4814,0.4881,0.4869,0.4902,0.4873,0.4891,0.4816,0.4808,0.467,0.4894,0.4894,0.4894,0.4318,0.4325,0.4348,0.4381,0.4452,0.4638,0.4727,0.4808,0.4857,0.4877,0.4881,0.4879,0.4798,0.4791,0.4651,0.4878,0.4879,0.4879,0.4879,0.4279,0.4268,0.4331,0.4337,0.4436,0.4525,0.4691,0.4769,0.4858,0.487,0.4889,0.4827,0.4785,0.4638,0.4881,0.4881,0.488,0.488,0.488,0.4253,0.4239,0.4249,0.4273,0.4339,0.4469,0.4536,0.4684,0.4823,0.4868,0.4802,0.4799,0.4697,0.4905,0.4904,0.4904,0.4904,0.4904,0.4904,0.4199,0.4207,0.4182,0.4213,0.4222,0.4281,0.4456,0.4547,0.4697,0.4776,0.4776,0.4638,0.4885,0.4915,0.4903,0.4903,0.4904,0.4904,0.4904,0.4086,0.4104,0.4073,0.4063,0.4075,0.4033,0.4226,0.4356,0.4502,0.4547,0.4499,0.4743,0.4709,0.4713,0.4735,0.4678,0.4678,0.4678,0.4678,0.4004,0.4015,0.3945,0.3904,0.3885,0.3909,0.3864,0.4032,0.4226,0.4253,0.4331,0.4286,0.4301,0.4242,0.4256,0.4269,0.4094,0.4093,0.4093,0.3911,0.3927,0.3826,0.3804,0.3767,0.373,0.3613,0.3607,0.3869,0.4061,0.4164,0.4189,0.412,0.4155,0.4063,0.4094,0.4115,0,0]},{"header":{"parameterUnit":"m.s-1","parameterCategory":2,"la1":30.2992,"la2":30.254,"lo1":-89.0895,"lo2":-89.0443,"dy":0.0025,"dx":0.0025,"nx":19,"ny":19,"refTime":"2026-03-21T03:00:00:Z","depth":"0","parameterNumber":3,"parameterNumberName":"V-component_of_CURRENTS"},"data":[0,0,0,0.1188,0.119,0.1279,0.128,0.134,0.134,0,0,0,0,0,0,0,0,0,0,0,0.113,0.113,0.1188,0.119,0.1279,0.128,0.134,0.134,0,0,0,0,0,0,0,0,0,0,0,0.113,0.113,0.1129,0.119,0.1279,0.128,0.134,0.1287,0,0,0,0,0,0,0,0,0,0,0.1208,0.1233,0.113,0.1129,0.1191,0.1279,0.128,0.1285,0.129,0.1282,0,0.1272,0,0.1315,0.1342,0.1342,0,0,0,0.1196,0.123,0.1182,0.1129,0.1192,0.1279,0.1241,0.1289,0.1294,0.1288,0.1273,0.1277,0.1316,0.1343,0.1343,0.1452,0.1453,0,0,0.1191,0.1222,0.1178,0.1185,0.1183,0.1238,0.1243,0.1293,0.1326,0.1274,0.1279,0.1317,0.1343,0.1343,0.1452,0.1453,0,0,0,0.1173,0.1219,0.1173,0.1181,0.1206,0.124,0.1247,0.1325,0.1288,0.128,0.1318,0.1343,0.1343,0.1451,0.1452,0.1623,0,0,0,0.117,0.1206,0.117,0.1201,0.1204,0.1295,0.1278,0.1284,0.1292,0.1318,0.1343,0.1344,0.1449,0.1451,0.1616,0.1672,0,0,0,0.1132,0.1207,0.1188,0.12,0.1231,0.1294,0.1266,0.1287,0.1315,0.1343,0.1344,0.1449,0.1451,0.161,0.1662,0.1752,0,0,0,0.1197,0.1215,0.119,0.1242,0.1229,0.1341,0.1266,0.1388,0.1432,0.1343,0.145,0.1452,0.1608,0.1656,0.1746,0.1728,0.1757,0,0,0.1252,0.1224,0.125,0.1229,0.1328,0.1331,0.149,0.1508,0.145,0.1427,0.1431,0.1618,0.1661,0.1751,0.1859,0.1884,0,0,0,0.129,0.1296,0.1329,0.1377,0.1438,0.1547,0.1589,0.1588,0.1608,0.148,0.1616,0.1637,0.1689,0.1665,0.1685,0.1368,0.1462,0.1462,0.1462,0.1416,0.1405,0.1485,0.1499,0.1591,0.1719,0.1799,0.1795,0.1733,0.1764,0.1777,0.1957,0.1935,0.1949,0.1624,0.1784,0.1785,0.1786,0.1786,0.1498,0.1519,0.1571,0.1626,0.1725,0.1854,0.1963,0.1966,0.2033,0.1922,0.1965,0.1845,0.1982,0.1626,0.1797,0.1795,0.1794,0.1793,0.1792,0.1547,0.1552,0.1581,0.1681,0.1823,0.194,0.2105,0.216,0.2158,0.224,0.2174,0.217,0.1854,0.2259,0.2259,0.226,0.2261,0.2261,0.2262,0.1566,0.1596,0.1643,0.1744,0.1837,0.1998,0.2194,0.229,0.237,0.2346,0.2345,0.1873,0.21,0.2079,0.2272,0.227,0.2269,0.2268,0.2267,0.1545,0.1575,0.1662,0.1737,0.1949,0.2136,0.229,0.2477,0.2554,0.2588,0.2069,0.2397,0.2333,0.2313,0.2295,0.2534,0.2534,0.2534,0.2534,0.1535,0.1551,0.1681,0.1818,0.2023,0.2207,0.2461,0.2597,0.2375,0.2144,0.2,0.184,0.1843,0.1738,0.1731,0.1695,0.1776,0.1774,0.1773,0.1513,0.1576,0.1658,0.1813,0.2055,0.229,0.2531,0.2663,0.216,0.1706,0.1565,0.1598,0.1322,0.1352,0.1148,0.1164,0.1091,0,0]}],[{"header":{"parameterUnit":"m.s-1","parameterCategory":2,"la1":30.2992,"la2":30.254,"lo1":-89.0895,"lo2":-89.0443,"dy":0.0025,"dx":0.0025,"nx":19,"ny":19,"refTime":"2026-03-21T03:00:00:Z","depth":"2","parameterNumber":2,"parameterNumberName":"U-component_of_CURRENTS"},"data":[0,0,0,0.3145,0.3146,0.3394,0.3397,0.352,0.3519,0,0,0,0,0,0,0,0,0,0,0,0.3129,0.313,0.3144,0.3147,0.3394,0.3397,0.352,0.3519,0,0,0,0,0,0,0,0,0,0,0,0.3129,0.313,0.3131,0.3147,0.3394,0.3397,0.352,0.3407,0,0,0,0,0,0,0,0,0,0,0.3202,0.3167,0.313,0.3131,0.3147,0.3393,0.3397,0.3405,0.3414,0.3318,0,0.3345,0,0.3347,0.3513,0.3513,0,0,0,0.3255,0.3161,0.32,0.3131,0.3148,0.3392,0.3313,0.3413,0.3422,0.3328,0.3346,0.3351,0.3349,0.3512,0.3512,0.3506,0.3507,0,0,0.3241,0.32,0.3195,0.3206,0.3189,0.3304,0.3319,0.3422,0.3429,0.3347,0.3353,0.3351,0.3512,0.3511,0.3506,0.3506,0,0,0,0.3129,0.319,0.3237,0.3202,0.3213,0.3309,0.3326,0.343,0.3437,0.3354,0.3353,0.3511,0.351,0.3505,0.3506,0.3475,0,0,0,0.3126,0.3115,0.323,0.3212,0.3212,0.334,0.3331,0.3435,0.3444,0.3352,0.3511,0.3509,0.3504,0.3505,0.3474,0.3363,0,0,0,0.3122,0.3114,0.3133,0.3208,0.3256,0.334,0.3364,0.3441,0.3434,0.3513,0.3509,0.3504,0.3505,0.3474,0.3365,0.335,0,0,0,0.3089,0.3048,0.3133,0.3106,0.3252,0.3244,0.3365,0.3403,0.346,0.3511,0.3504,0.3506,0.3473,0.3367,0.3352,0.3274,0.326,0,0,0.2996,0.3037,0.3021,0.3098,0.3056,0.3219,0.3199,0.3343,0.3461,0.3472,0.3476,0.3474,0.3366,0.335,0.336,0.3342,0,0,0,0.2964,0.2977,0.2987,0.2993,0.3003,0.3063,0.3165,0.3313,0.3517,0.3481,0.3514,0.3444,0.3436,0.3395,0.3383,0.3513,0.3513,0.3512,0.3512,0.272,0.2795,0.2744,0.2825,0.2845,0.294,0.3039,0.3247,0.3371,0.3529,0.3453,0.345,0.3412,0.34,0.3544,0.3544,0.3544,0.3544,0.3544,0.2505,0.247,0.2582,0.2604,0.2666,0.2705,0.2938,0.3118,0.3319,0.3495,0.3492,0.3404,0.3383,0.3542,0.3542,0.3543,0.3543,0.3543,0.3543,0.2284,0.2288,0.2351,0.2389,0.2467,0.264,0.2765,0.298,0.3248,0.3248,0.3293,0.3293,0.3365,0.334,0.3339,0.3339,0.3338,0.3338,0.3338,0.2018,0.2076,0.21,0.2218,0.2296,0.246,0.272,0.2846,0.305,0.3181,0.3183,0.3379,0.3386,0.3354,0.333,0.3331,0.3332,0.3333,0.3333,0.184,0.1896,0.1918,0.1977,0.215,0.2234,0.2471,0.2711,0.2847,0.2907,0.314,0.3147,0.3128,0.314,0.3103,0.3014,0.3014,0.3014,0.3014,0.1707,0.1735,0.1772,0.1824,0.1934,0.2114,0.2208,0.2338,0.2599,0.2642,0.2657,0.2695,0.2718,0.2678,0.27,0.2655,0.2449,0.2448,0.2447,0.1604,0.1642,0.1632,0.1729,0.1846,0.2013,0.2033,0.202,0.2204,0.2416,0.2472,0.2993,0.3097,0.3113,0.3097,0.3115,0.3061,0,0]},{"header":{"parameterUnit":"m.s-1","parameterCategory":2,"la1":30.2992,"la2":30.254,"lo1":-89.0895,"lo2":-89.0443,"dy":0.0025,"dx":0.0025,"nx":19,"ny":19,"refTime":"2026-03-21T03:00:00:Z","depth":"2","parameterNumber":3,"parameterNumberName":"V-component_of_CURRENTS"},"data":[0,0,0,-0.0058,-0.0068,-0.0267,-0.0266,-0.0216,-0.0216,0,0,0,0,0,0,0,0,0,0,0,0.0135,0.0133,-0.0057,-0.0069,-0.0267,-0.0266,-0.0216,-0.0216,0,0,0,0,0,0,0,0,0,0,0,0.0136,0.0134,0.0131,-0.007,-0.0267,-0.0266,-0.0215,-0.0102,0,0,0,0,0,0,0,0,0,0,0.0071,0.01,0.0134,0.0131,-0.0073,-0.0268,-0.0265,-0.0097,-0.0109,-0.009,0,-0.0158,0,-0.0313,-0.0221,-0.0222,0,0,0,0.0096,0.0109,0.0045,0.013,-0.0077,-0.0268,-0.0131,-0.0105,-0.0117,-0.0104,-0.016,-0.0164,-0.0312,-0.0222,-0.0222,-0.0178,-0.0177,0,0,0.0107,0.0123,0.0052,0.0035,-0.0175,-0.0126,-0.014,-0.0114,-0.0135,-0.016,-0.0167,-0.0312,-0.0222,-0.0223,-0.0179,-0.0177,0,0,0,0.0028,0.0131,0.0066,0.004,-0.0093,-0.0136,-0.0151,-0.0131,-0.0159,-0.0168,-0.0311,-0.0223,-0.0224,-0.018,-0.0178,-0.0043,0,0,0,0.0043,0.007,0.007,0.0082,-0.0097,-0.0182,-0.0169,-0.0153,-0.0164,-0.0311,-0.0223,-0.0224,-0.0181,-0.0179,-0.0049,-0.0133,0,0,0,0.0153,0.0078,0.0043,0.0082,-0.0097,-0.0187,-0.0205,-0.0157,-0.0259,-0.0222,-0.0224,-0.0182,-0.0179,-0.0055,-0.0137,-0.0028,0,0,0,0.0204,0.0123,0.0044,-0.0056,-0.0097,-0.0251,-0.0207,-0.0298,-0.0278,-0.0223,-0.0181,-0.0178,-0.0056,-0.014,-0.0032,0.006,0.0087,0,0,0.014,0.0115,0.0072,-0.0009,-0.0144,-0.0208,-0.0262,-0.0228,-0.0208,-0.0142,-0.0143,-0.0047,-0.0138,-0.0029,0.0203,0.0225,0,0,0,0.008,0.0068,0.0021,-0.0091,-0.023,-0.0248,-0.0325,-0.0255,-0.0098,-0.0229,-0.0035,-0.01,-0.0033,0.0016,0.0034,-0.0166,-0.0167,-0.0167,-0.0167,-0.0095,-0.0066,-0.0114,-0.0105,-0.0179,-0.029,-0.0239,-0.0151,-0.0125,0.0003,0.0028,0.0198,0.0256,0.0269,0.0119,0.012,0.0121,0.0121,0.0121,-0.0188,-0.0154,-0.0128,-0.0105,-0.0135,-0.0151,-0.0098,-0.0033,0.0117,0.0144,0.0211,0.0171,0.0297,0.0132,0.013,0.0129,0.0127,0.0127,0.0126,-0.0266,-0.0194,-0.017,-0.0091,-0.0025,0.0001,0.0165,0.0173,0.0205,0.0237,0.0378,0.0376,0.023,0.038,0.038,0.038,0.038,0.038,0.0381,-0.0308,-0.0255,-0.0138,-0.0021,0.0092,0.0249,0.0333,0.0404,0.0451,0.0424,0.0428,0.0282,0.0274,0.0243,0.0384,0.0383,0.0383,0.0382,0.0382,-0.019,-0.0194,-0.0009,0.0107,0.038,0.0631,0.0651,0.0798,0.0788,0.0812,0.0555,0.055,0.0491,0.0477,0.045,0.0635,0.0635,0.0635,0.0635,-0.0123,-0.0114,0.0157,0.0369,0.063,0.0822,0.1118,0.1039,0.087,0.0665,0.0663,0.0653,0.0644,0.0589,0.0572,0.0543,0.0753,0.0753,0.0753,-0.0013,0.0045,0.0271,0.047,0.0772,0.1094,0.1344,0.1237,0.0891,0.0748,0.0583,0.0662,0.0643,0.0631,0.0535,0.0513,0.0462,0,0]}],[{"header":{"parameterUnit":"m.s-1","parameterCategory":2,"la1":30.2992,"la2":30.254,"lo1":-89.0895,"lo2":-89.0443,"dy":0.0025,"dx":0.0025,"nx":19,"ny":19,"refTime":"2026-03-21T03:00:00:Z","depth":"4","parameterNumber":2,"parameterNumberName":"U-component_of_CURRENTS"},"data":[0,0,0,0.0918,0.0919,0.0961,0.0961,0.0982,0.0982,0,0,0,0,0,0,0,0,0,0,0,0.0868,0.0868,0.0918,0.0919,0.0961,0.0961,0.0982,0.0982,0,0,0,0,0,0,0,0,0,0,0,0.0868,0.0868,0.0867,0.092,0.0961,0.0961,0.0982,0.0957,0,0,0,0,0,0,0,0,0,0,0.092,0.0891,0.0868,0.0867,0.092,0.0961,0.0961,0.0956,0.0959,0.0956,0,0.0939,0,0.0979,0.0984,0.0984,0,0,0,0.0913,0.0889,0.0897,0.0867,0.092,0.0961,0.0941,0.0958,0.0961,0.0959,0.094,0.0942,0.0979,0.0984,0.0984,0.1067,0.1068,0,0,0.0911,0.0886,0.0894,0.0897,0.0901,0.0939,0.0942,0.096,0.0951,0.094,0.0944,0.0979,0.0984,0.0984,0.1067,0.1068,0,0,0,0.0908,0.0884,0.0892,0.0895,0.0915,0.0941,0.0944,0.095,0.095,0.0944,0.098,0.0984,0.0984,0.1066,0.1067,0.1151,0,0,0,0.0907,0.0883,0.089,0.0877,0.0914,0.0942,0.0933,0.0948,0.0953,0.098,0.0984,0.0984,0.1065,0.1066,0.1147,0.115,0,0,0,0.0872,0.0882,0.0875,0.0875,0.0901,0.0943,0.0945,0.095,0.0975,0.0984,0.0984,0.1064,0.1066,0.1144,0.1145,0.1193,0,0,0,0.0861,0.0838,0.0873,0.0859,0.09,0.0951,0.0946,0.1008,0.1025,0.0984,0.1065,0.1067,0.1142,0.1142,0.1189,0.1031,0,0,0,0.083,0.0833,0.0827,0.0861,0.0917,0.0946,0.1014,0.1048,0.1048,0.1053,0.1056,0.1149,0.1145,0.1192,0.1142,0,0,0,0,0.0818,0.0811,0.0832,0.0868,0.0923,0.101,0.1053,0.1074,0.1135,0.1067,0.1163,0.1157,0.1184,0.1084,0.1076,0.1076,0.1075,0.1075,0.1075,0.0755,0.0798,0.0817,0.0886,0.0944,0.1068,0.1126,0.1167,0.1167,0.1225,0.1238,0.1343,0.1242,0.1269,0.1269,0.127,0.127,0.127,0.127,0.0724,0.0732,0.082,0.0866,0.0988,0.1078,0.1195,0.1246,0.1331,0.1308,0.1333,0.1194,0.1279,0.1277,0.1276,0.1275,0.1274,0.1274,0.1273,0.0682,0.0696,0.0741,0.0837,0.097,0.1108,0.1231,0.1333,0.1387,0.1445,0.1347,0.1392,0.137,0.1482,0.1482,0.1483,0.1483,0.1483,0.1483,0.0627,0.0672,0.0703,0.0808,0.0889,0.1044,0.1253,0.1329,0.1431,0.1403,0.1478,0.1413,0.1406,0.1382,0.1487,0.1487,0.1486,0.1486,0.1485,0.056,0.0595,0.0628,0.0682,0.0837,0.0939,0.1141,0.1299,0.1361,0.1377,0.1377,0.1381,0.1327,0.1322,0.1292,0.1374,0.1373,0.1371,0,0.0508,0.0526,0.057,0.0627,0.0717,0.0872,0.0969,0.1107,0.1228,0.1189,0.1325,0.1317,0.1321,0.125,0.1243,0.1202,0,0,0,0.046,0.0485,0.0493,0.0568,0.0661,0.0833,0.1001,0.1031,0.1206,0.1258,0.133,0.134,0.1403,0.1499,0.1425,0.1417,0.1374,0,0]},{"header":{"parameterUnit":"m.s-1","parameterCategory":2,"la1":30.2992,"la2":30.254,"lo1":-89.0895,"lo2":-89.0443,"dy":0.0025,"dx":0.0025,"nx":19,"ny":19,"refTime":"2026-03-21T03:00:00:Z","depth":"4","parameterNumber":3,"parameterNumberName":"V-component_of_CURRENTS"},"data":[0,0,0,-0.0159,-0.0159,-0.0199,-0.0199,-0.0258,-0.0258,0,0,0,0,0,0,0,0,0,0,0,-0.0153,-0.0154,-0.0159,-0.0159,-0.0199,-0.0199,-0.0258,-0.0258,0,0,0,0,0,0,0,0,0,0,0,-0.0153,-0.0153,-0.0154,-0.016,-0.0199,-0.0199,-0.0258,-0.0227,0,0,0,0,0,0,0,0,0,0,-0.0188,-0.0175,-0.0153,-0.0154,-0.016,-0.0199,-0.0199,-0.0226,-0.0229,-0.024,0,-0.025,0,-0.0249,-0.0262,-0.0262,0,0,0,-0.0166,-0.0172,-0.0185,-0.0154,-0.016,-0.0199,-0.0183,-0.0228,-0.0231,-0.0245,-0.025,-0.0252,-0.025,-0.0262,-0.0262,-0.0269,-0.0269,0,0,-0.0163,-0.0158,-0.0183,-0.0188,-0.0175,-0.0182,-0.0184,-0.023,-0.0234,-0.025,-0.0253,-0.0251,-0.0262,-0.0263,-0.027,-0.0269,0,0,0,-0.0153,-0.0156,-0.0169,-0.0186,-0.0189,-0.0183,-0.0185,-0.0233,-0.0238,-0.0254,-0.0252,-0.0263,-0.0263,-0.027,-0.0269,-0.0212,0,0,0,-0.0152,-0.015,-0.0168,-0.0164,-0.0188,-0.0209,-0.0187,-0.0235,-0.0239,-0.0252,-0.0263,-0.0264,-0.027,-0.027,-0.0214,-0.0149,0,0,0,-0.0151,-0.0149,-0.0156,-0.0164,-0.0178,-0.0208,-0.0216,-0.0236,-0.0238,-0.0262,-0.0264,-0.0271,-0.027,-0.0216,-0.0154,-0.0168,0,0,0,-0.0141,-0.0111,-0.0156,-0.0111,-0.0177,-0.0151,-0.0215,-0.0212,-0.0225,-0.0263,-0.027,-0.0269,-0.0217,-0.0157,-0.017,-0.0139,0,0,0,-0.0085,-0.0104,-0.007,-0.011,-0.0066,-0.0146,-0.0115,-0.0172,-0.022,-0.0258,-0.0258,-0.0214,-0.0155,-0.0168,-0.0095,0,0,0,0,-0.0037,-0.002,-0.0012,-0.0002,-0.0013,-0.0038,-0.0099,-0.0143,-0.0195,-0.0225,-0.0214,-0.0178,-0.0189,-0.0178,-0.0266,-0.0266,-0.0266,-0.0266,-0.0266,0.0038,0.0045,0.0095,0.009,0.009,0.0031,0.0005,-0.0071,-0.0135,-0.0158,-0.0134,-0.0099,-0.0084,-0.0158,-0.0158,-0.0158,-0.0158,-0.0157,-0.0157,0.0131,0.0166,0.0159,0.0207,0.0168,0.0169,0.0087,0.0025,-0.0035,-0.0087,-0.0104,-0.0119,-0.0152,-0.0153,-0.0154,-0.0154,-0.0155,-0.0155,-0.0155,0.0178,0.0195,0.022,0.0268,0.0283,0.0243,0.0231,0.0156,0.0046,0.0042,-0.0,-0.0062,-0.0066,0.0003,0.0003,0.0003,0.0004,0.0004,0.0004,0.0208,0.0234,0.0281,0.0331,0.0357,0.037,0.0313,0.026,0.0156,0.01,0.0052,-0.0045,-0.0051,-0.0058,0.0008,0.0007,0.0007,0.0006,0.0006,0.0259,0.0265,0.0338,0.0378,0.0442,0.045,0.0417,0.0313,0.0254,0.0184,0.0102,0.0096,0.0076,0.0068,0.0064,0.0168,0.0169,0.0169,0,0.0281,0.0293,0.0374,0.0434,0.0485,0.0488,0.0445,0.0375,0.0249,0.0253,0.0218,0.0129,0.0123,0.0102,0.0096,0.0093,0,0,0,0.03,0.0328,0.0379,0.044,0.0496,0.0457,0.0428,0.0387,0.0295,0.0237,0.0186,0.0181,0.0091,0.0019,-0.0026,-0.0033,-0.0047,0,0]}]]